CAPE
0 0 0 0 0 0 0 0 0 0 0 0 0 0 0 0 0 0 0 0 0 0 0 25 33 7 9 10 14 17 7 49 31 24 20 22 40 49 53 34 47 39 11 28 60 32 26 34 9
0 0 0 0 0 0 0 0 0 0 0 0 0 0 0 0 0 0 0 0 0 0 0 1 36 2 5 11 8 4 23 9 8 19 20 8 24 31 38 36 35 24 17 25 44 30 27 41 22
0 0 0 0 0 0 0 0 0 0 0 0 0 0 0 0 0 0 0 0 0 0 0 0 27 16 30 17 11 4 13 8 5 3 11 16 6 11 21 4 12 12 3 9 23 23 21 19 21
0 0 0 0 0 0 0 0 0 0 0 0 0 0 0 0 0 0 0 0 0 0 0 1 28 9 23 28 19 15 4 8 12 9 1 4 6 3 8 7 4 2 4 8 5 6 5 1 17
0 0 0 0 0 0 0 0 0 0 0 0 0 0 0 0 0 0 0 0 0 0 0 20 5 12 14 3 11 20 15 0 4 2 14 4 4 7 6 6 5 4 5 6 8 5 6 2 2
0 0 0 0 0 0 0 0 0 0 0 0 0 0 0 0 0 0 0 0 0 0 0 2 10 2 6 11 8 5 8 5 2 6 2 4 5 3 0 0 0 0 2 0 0 0 0 0 0
0 0 0 0 0 0 0 0 0 0 0 0 0 0 0 0 0 0 0 0 0 0 0 0 2 7 13 6 5 5 2 2 10 6 5 1 0 0 0 0 0 0 0 0 0 0 0 0 0
0 0 0 0 0 0 0 0 0 0 0 0 0 0 0 0 0 0 0 0 0 0 0 0 0 3 3 4 3 10 3 4 5 2 5 0 0 0 0 0 0 0 0 0 0 0 0 0 0
0 0 0 0 0 0 0 0 0 0 0 0 0 0 0 0 0 0 0 0 0 0 0 0 0 1 0 2 1 1 9 5 7 4 4 0 0 0 0 0 0 0 0 0 0 0 0 0 0
0 0 0 0 0 0 0 0 0 0 0 0 0 0 0 0 0 0 0 0 0 0 0 0 0 0 0 0 0 0 0 1 0 0 0 0 0 0 0 0 0 0 0 0 0 0 0 0 0
0 0 0 0 0 0 0 0 0 0 0 0 0 0 0 0 0 0 0 0 0 0 0 0 0 0 0 0 0 0 0 0 0 0 0 0 0 0 0 0 0 0 0 0 0 0 0 0 0
0 0 0 0 0 0 0 0 0 0 0 0 0 0 0 0 0 0 0 0 0 0 0 0 0 0 0 0 0 0 0 0 0 0 0 0 0 0 0 0 0 0 0 0 0 0 0 0 0
0 0 0 0 0 0 0 0 0 0 0 0 0 0 0 0 0 0 0 0 0 0 0 0 0 0 0 0 0 0 0 0 0 0 0 0 0 0 0 0 0 0 0 0 0 0 0 0 0
0 0 0 0 0 0 0 0 0 0 0 0 0 0 0 0 0 0 0 0 0 0 0 0 0 0 0 0 0 0 0 0 0 0 0 0 0 0 0 0 0 0 0 0 0 0 0 0 0
0 0 0 0 0 0 0 0 0 0 0 0 0 0 0 0 0 0 0 0 0 0 0 0 0 0 0 0 0 0 0 0 0 0 0 0 0 0 0 0 0 0 0 0 0 0 0 0 0
0 0 0 0 0 0 0 0 0 0 0 0 0 0 0 0 0 0 0 0 0 0 0 0 0 0 0 0 0 0 0 0 0 0 0 0 0 0 0 0 0 0 0 0 0 0 0 0 0
0 0 0 0 0 0 0 0 0 0 0 0 0 0 0 0 0 0 0 0 0 0 0 0 0 0 0 0 0 0 0 0 0 0 0 0 0 0 0 0 0 0 0 0 0 0 0 0 0
0 0 0 0 0 0 0 0 0 0 0 0 0 0 0 0 0 0 0 0 0 0 0 0 0 0 0 0 0 0 0 0 0 0 0 0 0 0 0 0 0 0 0 0 0 0 0 0 0
0 0 0 0 0 0 0 0 0 0 0 0 0 0 0 0 0 0 0 0 0 0 0 0 0 0 0 0 0 0 0 0 0 0 0 0 0 0 0 0 0 0 0 0 0 0 0 0 0
0 0 0 0 0 0 0 0 0 0 0 0 0 0 0 0 0 0 0 0 0 0 0 0 0 0 0 0 0 0 0 0 0 0 0 0 0 0 0 0 0 0 0 0 0 0 0 0 0
0 0 0 0 0 0 0 0 0 0 0 0 0 0 0 0 0 0 0 0 0 0 0 0 0 0 0 0 0 0 0 0 0 0 0 0 0 0 0 0 0 0 0 0 0 0 0 0 0
0 0 0 0 0 0 0 0 0 0 0 0 0 0 0 0 0 0 0 0 0 0 0 0 0 0 0 0 0 0 0 0 0 0 0 0 0 0 0 0 0 0 0 0 0 0 0 0 0
0 0 0 0 0 0 0 0 0 0 0 0 0 0 0 0 0 0 0 0 0 0 0 0 0 0 0 0 0 0 0 0 0 0 0 0 0 0 0 0 0 0 0 0 0 0 0 0 0
0 0 0 0 0 0 0 0 0 0 0 0 0 0 0 0 0 0 0 0 0 0 0 0 0 0 0 0 0 0 0 0 0 0 0 0 0 0 0 0 0 0 0 0 0 0 0 0 0
0 0 0 0 0 0 0 0 0 0 0 0 0 0 0 0 0 0 0 0 0 0 0 0 0 0 0 0 0 0 0 0 0 0 0 0 0 0 0 0 0 0 0 0 0 0 0 0 0
0 0 0 0 0 0 0 0 0 0 0 0 0 0 0 0 0 0 0 0 0 0 0 0 0 0 0 0 0 0 0 0 0 0 0 0 0 0 0 0 0 0 0 0 0 0 0 0 0
0 0 0 0 0 0 0 0 0 0 0 0 0 0 0 0 0 0 0 0 0 0 0 0 0 0 0 0 0 0 0 0 0 0 0 0 0 0 0 0 0 0 0 0 0 0 0 0 0
0 0 0 0 0 0 0 0 0 0 0 0 0 0 0 0 0 0 0 0 0 0 0 0 0 0 0 0 0 0 0 0 0 0 0 0 0 0 0 0 0 0 0 0 0 0 0 0 0
0 0 0 0 0 0 0 0 0 0 0 0 0 0 0 0 0 0 0 0 0 0 0 0 0 0 0 0 0 0 0 0 0 0 0 0 0 0 0 0 0 0 0 0 0 0 0 0 0
0 0 0 0 0 0 0 0 0 0 0 0 0 0 0 0 0 0 0 0 0 0 0 0 0 0 0 0 0 0 0 0 0 0 0 0 0 0 0 0 0 0 0 0 0 0 0 0 0
CIN
0 0 0 0 0 0 0 0 0 0 0 0 0 0 0 0 0 0 0 0 0 0 0 -2 -2 -1 -1 -1 -1 -3 -1 -1 -3 -2 -1 -1 -1 -3 -3 -2 -1 -1 -1 -5 0 -2 -7 -5 -1
0 0 0 0 0 0 0 0 0 0 0 0 0 0 0 0 0 0 0 0 0 0 0 -2 -2 -1 -1 -2 -1 -3 -6 -2 -3 -4 -2 -1 -3 -2 -2 -3 -3 -3 -3 -5 -3 -4 -5 -4 -2
0 0 0 0 0 0 0 0 0 0 0 0 0 0 0 0 0 0 0 0 0 0 0 0 -1 -4 -1 -4 -1 -1 -1 -2 -1 -2 -3 -1 -1 -1 -1 -1 -3 -2 -1 -1 -3 -4 -5 -5 -4
0 0 0 0 0 0 0 0 0 0 0 0 0 0 0 0 0 0 0 0 0 0 0 -15 -2 -1 -3 -5 -3 -1 -1 -1 -2 -1 -1 -1 -1 -2 0 0 -3 -3 -1 0 -1 -1 -3 -1 -4
0 0 0 0 0 0 0 0 0 0 0 0 0 0 0 0 0 0 0 0 0 0 0 -5 -1 -1 -1 -3 -1 -2 -2 -1 -1 -1 -3 -2 -1 0 0 -1 -1 -1 0 0 0 0 0 0 -1
0 0 0 0 0 0 0 0 0 0 0 0 0 0 0 0 0 0 0 0 0 0 0 -3 -1 -1 -1 -1 -1 -1 -1 0 -2 -3 -1 -1 0 -1 0 0 0 0 -1 0 0 0 0 0 0
0 0 0 0 0 0 0 0 0 0 0 0 0 0 0 0 0 0 0 0 0 0 0 0 -2 -1 0 -1 -2 -1 -3 -1 0 0 0 -1 0 0 0 0 0 0 0 0 0 0 0 0 0
0 0 0 0 0 0 0 0 0 0 0 0 0 0 0 0 0 0 0 0 0 0 0 0 -1 -1 -1 -3 -1 0 -2 -1 -1 0 0 0 0 0 0 0 0 0 0 0 0 0 0 0 0
0 0 0 0 0 0 0 0 0 0 0 0 0 0 0 0 0 0 0 0 0 0 0 0 0 -3 -3 -4 -5 -1 -1 -1 -1 -1 0 0 0 0 0 0 0 0 0 0 0 0 0 0 0
0 0 0 0 0 0 0 0 0 0 0 0 0 0 0 0 0 0 0 0 0 0 0 0 0 0 0 0 -1 -1 -1 -7 0 0 0 0 0 0 0 0 0 0 0 0 0 0 0 0 0
0 0 0 0 0 0 0 0 0 0 0 0 0 0 0 0 0 0 0 0 0 0 0 0 0 0 0 0 0 -1 0 0 0 0 0 0 0 0 0 0 0 0 0 0 0 0 0 0 0
0 0 0 0 0 0 0 0 0 0 0 0 0 0 0 0 0 0 0 0 0 0 0 0 0 0 0 0 0 0 0 0 0 0 0 0 0 0 0 0 0 0 0 0 0 0 0 0 0
0 0 0 0 0 0 0 0 0 0 0 0 0 0 0 0 0 0 0 0 0 0 0 0 0 0 0 0 0 0 0 0 0 0 0 0 0 0 0 0 0 0 0 0 0 0 0 0 0
0 0 0 0 0 0 0 0 0 0 0 0 0 0 0 0 0 0 0 0 0 0 0 0 0 0 0 0 0 0 0 0 0 0 0 0 0 0 0 0 0 0 0 0 0 0 0 0 0
0 0 0 0 0 0 0 0 0 0 0 0 0 0 0 0 0 0 0 0 0 0 0 0 0 0 0 0 0 0 0 0 0 0 0 0 0 0 0 0 0 0 0 0 0 0 0 0 0
0 0 0 0 0 0 0 0 0 0 0 0 0 0 0 0 0 0 0 0 0 0 0 0 0 0 0 0 0 0 0 0 0 0 0 0 0 0 0 0 0 0 0 0 0 0 0 0 0
0 0 0 0 0 0 0 0 0 0 0 0 0 0 0 0 0 0 0 0 0 0 0 0 0 0 0 0 0 0 0 0 0 0 0 0 0 0 0 0 0 0 0 0 0 0 0 0 0
0 0 0 0 0 0 0 0 0 0 0 0 0 0 0 0 0 0 0 0 0 0 0 0 0 0 0 0 0 0 0 0 0 0 0 0 0 0 0 0 0 0 0 0 0 0 0 0 0
0 0 0 0 0 0 0 0 0 0 0 0 0 0 0 0 0 0 0 0 0 0 0 0 0 0 0 0 0 0 0 0 0 0 0 0 0 0 0 0 0 0 0 0 0 0 0 0 0
0 0 0 0 0 0 0 0 0 0 0 0 0 0 0 0 0 0 0 0 0 0 0 0 0 0 0 0 0 0 0 0 0 0 0 0 0 0 0 0 0 0 0 0 0 0 0 0 0
0 0 0 0 0 0 0 0 0 0 0 0 0 0 0 0 0 0 0 0 0 0 0 0 0 0 0 0 0 0 0 0 0 0 0 0 0 0 0 0 0 0 0 0 0 0 0 0 0
0 0 0 0 0 0 0 0 0 0 0 0 0 0 0 0 0 0 0 0 0 0 0 0 0 0 0 0 0 0 0 0 0 0 0 0 0 0 0 0 0 0 0 0 0 0 0 0 0
0 0 0 0 0 0 0 0 0 0 0 0 0 0 0 0 0 0 0 0 0 0 0 0 0 0 0 0 0 0 0 0 0 0 0 0 0 0 0 0 0 0 0 0 0 0 0 0 0
0 0 0 0 0 0 0 0 0 0 0 0 0 0 0 0 0 0 0 0 0 0 0 0 0 0 0 0 0 0 0 0 0 0 0 0 0 0 0 0 0 0 0 0 0 0 0 0 0
0 0 0 0 0 0 0 0 0 0 0 0 0 0 0 0 0 0 0 0 0 0 0 0 0 0 0 0 0 0 0 0 0 0 0 0 0 0 0 0 0 0 0 0 0 0 0 0 0
0 0 0 0 0 0 0 0 0 0 0 0 0 0 0 0 0 0 0 0 0 0 0 0 0 0 0 0 0 0 0 0 0 0 0 0 0 0 0 0 0 0 0 0 0 0 0 0 0
0 0 0 0 0 0 0 0 0 0 0 0 0 0 0 0 0 0 0 0 0 0 0 0 0 0 0 0 0 0 0 0 0 0 0 0 0 0 0 0 0 0 0 0 0 0 0 0 0
0 0 0 0 0 0 0 0 0 0 0 0 0 0 0 0 0 0 0 0 0 0 0 0 0 0 0 0 0 0 0 0 0 0 0 0 0 0 0 0 0 0 0 0 0 0 0 0 0
0 0 0 0 0 0 0 0 0 0 0 0 0 0 0 0 0 0 0 0 0 0 0 0 0 0 0 0 0 0 0 0 0 0 0 0 0 0 0 0 0 0 0 0 0 0 0 0 0
0 0 0 0 0 0 0 0 0 0 0 0 0 0 0 0 0 0 0 0 0 0 0 0 0 0 0 0 0 0 0 0 0 0 0 0 0 0 0 0 0 0 0 0 0 0 0 0 0
Wind_Speed
22 20 15 15 17 17 16 14 15 14 16 17 17 16 16 16 15 17 16 10 10 14 15 14 14 13 13 13 13 14 16 17 18 19 19 19 17 16 16 17 17 16 15 13 12 11 12 9 10
21 17 16 14 17 17 17 15 12 13 15 14 17 18 18 17 16 15 10 9 11 13 13 12 12 12 13 13 13 13 15 15 16 17 18 18 16 16 15 15 16 17 15 13 14 13 11 7 10
18 18 14 14 15 17 16 14 13 14 12 18 18 18 17 17 16 10 12 9 11 13 12 12 13 12 12 13 13 14 14 15 15 16 15 15 14 15 13 14 14 15 16 14 13 10 9 6 3
19 17 15 15 16 13 13 18 13 12 16 17 18 19 18 18 16 9 7 10 11 11 12 13 12 11 11 12 13 13 14 15 15 14 13 13 12 11 12 12 13 13 13 13 9 8 3 2 1
18 16 15 15 15 13 18 20 9 12 16 17 17 20 19 17 15 8 9 10 11 11 11 10 11 11 11 11 12 13 13 14 14 13 11 10 10 10 10 11 10 10 9 8 5 4 4 3 3
17 15 15 15 15 17 20 18 10 13 16 16 18 18 18 17 11 6 7 9 10 10 9 7 10 10 11 12 12 12 13 14 13 11 10 9 9 9 9 9 9 8 7 6 6 7 6 6 6
15 15 14 15 18 18 19 16 9 11 14 16 15 19 18 14 10 5 5 6 8 8 6 5 7 8 10 10 11 12 13 12 11 10 9 9 9 9 9 9 8 8 8 8 8 8 9 9 9
15 14 14 15 16 16 19 14 13 11 14 15 15 18 20 14 7 4 3 3 5 5 4 4 5 7 8 9 10 10 11 11 10 9 9 9 10 10 10 10 10 11 11 11 10 10 10 10 11
16 15 12 14 15 18 19 15 14 15 14 15 16 18 19 10 6 4 4 4 1 2 3 3 3 5 7 7 9 10 11 10 9 9 10 11 11 12 12 12 13 13 14 13 12 12 12 12 12
17 15 12 14 17 19 19 18 17 15 15 15 16 16 14 7 5 3 4 2 1 5 4 2 2 3 5 6 7 9 8 8 8 10 11 12 13 14 15 16 16 16 16 15 14 13 13 13 13
16 14 15 17 18 19 19 19 18 16 16 16 17 14 11 9 8 7 7 2 4 4 2 5 6 6 6 6 7 9 7 7 8 9 12 14 16 17 17 17 17 17 17 16 15 15 15 15 15
17 13 12 16 18 21 21 19 18 16 17 17 18 13 11 8 8 4 3 1 2 5 11 8 12 11 10 6 6 6 6 6 6 8 13 17 20 20 20 20 19 19 18 18 17 17 17 16 16
15 14 11 7 5 12 16 15 16 14 19 16 19 8 13 19 19 16 6 2 3 8 8 10 9 12 11 10 5 5 6 6 5 8 14 19 22 22 22 21 20 20 19 19 19 18 18 17 17
14 9 6 7 9 10 12 12 10 18 25 25 20 13 24 29 26 17 1 7 9 3 6 6 7 11 7 8 7 7 5 4 4 8 18 23 24 24 23 22 22 22 21 20 19 19 18 18 18
14 16 18 21 20 17 15 14 17 22 25 25 26 28 30 32 28 29 19 14 4 1 5 3 6 4 7 9 8 6 7 3 3 5 21 25 26 26 25 24 24 23 21 21 20 20 19 20 19
17 16 18 19 22 18 15 12 24 27 26 23 23 25 28 31 32 31 24 15 3 4 3 3 3 4 4 5 6 6 5 4 4 6 22 26 27 27 27 26 25 24 23 22 21 21 21 21 20
19 15 18 18 21 19 18 15 25 26 24 23 21 23 27 31 32 33 31 24 8 4 4 4 3 4 4 3 2 3 2 2 4 10 22 27 28 28 28 28 27 25 23 22 22 21 21 22 22
16 17 15 13 17 21 19 20 23 24 24 24 23 22 22 24 27 29 33 29 12 6 4 7 6 8 8 11 14 17 17 13 10 5 23 26 28 27 28 28 28 26 24 23 22 22 22 23 23
16 16 16 11 13 17 17 19 22 23 24 25 25 23 22 22 24 23 25 31 14 9 9 7 7 8 8 12 12 15 7 5 4 7 2 18 25 27 28 29 29 27 26 25 22 22 23 24 22
17 19 18 15 16 15 14 18 21 22 23 24 25 24 22 21 20 20 21 21 20 5 7 7 7 8 9 11 14 16 15 17 12 5 9 20 27 29 30 31 30 28 26 24 23 22 23 23 22
19 18 18 18 21 17 14 16 18 20 22 23 25 24 22 21 20 20 20 21 22 22 11 5 6 11 12 14 14 16 17 21 18 15 24 26 25 27 30 32 32 30 26 26 25 24 23 26 23
21 17 17 19 22 19 17 18 17 18 22 23 24 24 24 22 21 21 21 21 22 22 18 15 11 13 15 14 14 14 12 12 15 16 22 25 23 26 28 31 32 31 28 27 26 24 24 24 28
20 19 22 21 20 21 20 19 17 16 21 22 23 23 23 23 23 22 22 22 21 20 17 16 15 16 19 19 21 21 23 26 25 21 23 24 23 25 28 28 30 31 27 28 28 25 24 24 26
18 21 23 22 20 22 20 16 19 19 16 18 20 21 22 23 23 23 23 23 21 20 17 15 14 17 20 22 23 24 27 30 31 29 29 29 26 24 25 28 28 28 27 28 29 28 26 26 27
20 23 25 25 24 24 21 18 19 15 14 15 17 20 22 22 23 24 25 25 24 22 20 17 15 17 19 22 25 28 29 30 34 34 32 31 29 29 31 26 25 25 23 27 29 28 26 22 24
21 20 22 27 26 25 20 21 18 13 13 14 16 18 20 22 22 23 24 25 25 24 23 21 18 17 18 18 21 26 30 32 34 36 36 36 34 33 30 27 26 26 26 25 28 30 30 27 27
20 22 18 22 23 26 22 20 17 13 14 14 15 17 19 21 22 23 24 24 24 24 24 23 22 20 20 20 20 21 23 26 31 33 35 36 37 38 37 34 30 26 26 26 27 30 33 30 32
20 17 23 22 27 28 24 22 22 16 15 15 16 17 18 20 21 23 24 24 24 24 24 24 23 23 23 23 22 22 23 24 24 25 28 32 35 36 37 37 37 35 31 26 25 28 31 33 34
24 24 22 21 22 27 30 25 22 20 15 16 16 16 18 19 22 23 24 25 25 26 26 26 26 25 25 25 25 24 25 25 26 26 27 28 29 31 34 35 35 36 36 34 32 30 30 31 35
21 23 24 26 27 25 27 28 22 18 16 15 16 17 18 20 23 24 26 26 28 29 29 28 28 28 28 28 28 27 27 27 28 28 29 29 29 29 29 31 33 35 35 35 34 37 36 35 36
Wind_Direction
322 325 333 324 307 314 311 322 327 333 333 334 339 339 336 337 339 329 324 22 61 86 96 86 76 61 58 62 55 44 57 58 45 50 46 42 36 26 25 28 29 30 37 32 21 17 13 348 13
326 331 328 329 304 303 308 320 327 328 330 349 340 336 333 331 334 338 6 349 78 90 91 80 70 58 57 65 71 56 54 40 49 48 43 46 35 30 25 28 30 37 35 35 35 33 23 352 25
337 328 325 323 309 303 312 329 325 326 339 326 330 333 333 328 333 356 336 67 84 89 84 80 86 63 55 66 55 65 49 52 47 51 41 36 31 34 22 28 26 34 40 35 36 27 19 1 7
329 319 323 310 306 320 327 318 321 326 325 325 327 326 328 324 327 353 36 84 91 88 87 88 81 69 65 56 59 54 59 62 54 36 33 32 20 9 20 22 26 25 28 34 18 15 341 268 280
330 318 310 311 314 319 305 305 339 332 328 331 335 327 326 329 336 11 83 89 97 93 87 70 74 74 65 60 65 58 57 58 51 40 21 9 7 4 2 7 7 8 1 1 330 265 262 264 241
321 324 317 306 313 308 297 308 335 333 335 341 336 341 335 328 349 28 81 92 96 101 86 54 72 73 73 69 67 66 63 60 54 27 360 340 331 335 344 351 342 341 327 300 261 246 251 238 230
347 334 320 316 306 306 304 312 340 344 346 338 352 335 340 345 335 42 78 81 96 100 84 14 56 69 73 71 70 66 70 60 47 17 357 333 314 309 313 321 314 289 266 261 257 248 239 236 230
3 349 332 326 318 323 313 328 324 352 345 343 345 340 332 351 1 20 31 55 94 101 89 20 31 63 71 70 74 64 68 53 29 2 339 319 305 301 294 292 268 256 249 248 246 246 244 238 236
13 349 346 336 329 321 318 328 330 328 340 340 340 335 330 8 15 345 314 307 352 102 103 347 15 19 65 53 73 77 77 58 30 342 321 307 300 286 276 265 255 248 244 246 247 247 247 248 244
10 4 7 343 331 322 318 329 334 337 335 340 339 338 336 3 3 334 289 272 283 130 125 75 47 46 57 54 67 72 31 19 2 326 308 301 287 272 261 252 247 246 242 246 252 253 260 256 250
41 21 359 339 331 326 321 331 342 347 338 336 335 333 329 325 322 316 294 278 136 132 136 124 118 109 89 79 85 92 56 38 6 339 309 288 275 262 254 250 249 248 248 248 255 255 259 257 254
44 61 36 350 335 316 319 336 339 343 338 335 330 321 311 316 313 335 354 23 136 142 146 140 142 137 132 104 93 84 73 59 21 349 307 276 258 252 248 248 247 248 251 253 255 256 259 259 254
55 60 75 76 312 1 348 345 344 346 338 333 314 330 296 278 276 279 317 29 107 143 147 150 145 147 141 136 106 102 104 99 73 341 297 270 253 248 250 248 249 249 255 256 257 260 263 264 262
63 94 148 122 58 38 16 15 24 358 324 297 301 308 268 243 257 281 177 145 148 146 145 145 154 154 145 141 136 134 119 99 49 331 284 260 250 248 250 248 249 250 257 258 262 264 269 268 267
61 53 54 34 17 37 51 57 27 342 302 307 269 257 246 237 253 209 181 172 159 226 291 165 156 165 160 156 149 139 140 108 75 344 274 258 250 248 249 248 250 251 260 263 265 268 270 268 269
33 41 33 38 19 31 43 61 345 328 319 307 282 261 252 238 226 219 198 180 192 269 226 265 267 267 182 170 158 150 141 140 137 327 275 259 253 251 249 248 251 254 261 267 267 270 269 269 271
20 34 18 29 19 20 14 25 323 331 337 341 316 287 270 255 249 232 215 196 182 209 265 265 245 255 194 195 236 169 164 151 151 313 281 259 255 255 251 248 251 260 267 270 273 275 277 272 273
21 12 29 36 17 2 11 359 342 335 343 337 330 313 298 285 273 262 235 207 184 196 248 273 270 276 275 285 286 286 287 296 306 312 279 268 261 261 255 250 251 258 269 274 278 279 280 277 275
24 19 19 45 37 13 17 7 348 343 348 345 338 326 313 302 283 285 275 254 186 191 190 254 260 270 271 281 287 289 294 300 183 178 196 295 274 266 260 253 254 263 267 273 281 283 280 279 282
3 1 7 26 31 28 27 10 360 356 357 352 345 337 324 316 308 296 297 289 285 260 213 200 245 262 265 274 283 290 296 296 302 301 305 290 272 264 260 252 256 264 272 279 282 284 281 282 285
350 354 356 360 354 10 19 7 360 358 358 355 352 347 339 331 321 311 306 304 297 285 286 236 246 272 272 274 281 288 293 290 298 302 285 279 280 274 268 260 261 265 277 280 281 281 281 276 283
341 353 353 348 338 343 346 348 355 359 351 352 349 350 348 341 333 327 323 319 312 299 291 286 283 279 276 274 277 281 289 297 300 301 295 287 288 281 277 269 266 269 278 279 280 282 281 280 275
338 340 334 334 335 331 326 331 343 351 345 345 347 351 350 350 348 342 335 330 329 324 308 296 290 286 279 276 276 279 281 280 286 296 295 295 294 286 279 279 276 275 281 279 278 280 281 280 277
337 333 333 333 332 325 329 326 325 331 350 355 357 356 355 354 355 357 356 352 347 346 337 319 305 295 286 280 278 278 279 278 279 285 288 289 294 294 290 284 283 283 284 281 277 278 279 278 276
335 331 325 322 321 318 325 321 322 335 349 356 360 358 358 358 1 2 1 0 0 356 351 344 331 313 299 288 282 280 280 281 277 279 286 290 292 291 286 290 291 290 290 284 279 279 280 281 278
334 334 325 317 316 316 323 313 319 331 347 354 358 357 359 1 0 1 2 3 3 2 2 357 348 339 336 324 306 291 285 283 282 279 280 283 286 288 294 296 294 292 290 289 284 278 278 279 277
335 329 334 324 322 312 312 315 319 323 326 338 343 347 350 354 358 357 356 357 357 358 357 356 354 349 342 336 328 325 318 303 292 287 285 284 284 282 283 287 293 295 293 290 287 281 277 278 276
330 338 324 325 315 310 314 310 306 302 308 316 325 335 341 345 348 352 351 350 351 351 348 349 349 346 342 341 336 332 330 327 324 316 304 294 289 287 285 283 284 285 290 292 290 286 282 278 277
325 322 323 321 315 309 307 309 314 304 305 308 318 326 333 337 339 343 344 346 345 343 342 340 340 338 337 335 331 331 330 329 327 325 321 316 307 298 291 288 287 286 285 286 287 287 286 283 279
331 323 323 311 310 310 307 304 318 313 308 310 313 320 325 330 333 336 337 338 337 336 335 334 332 331 329 328 327 326 326 326 327 325 325 323 318 315 307 298 292 289 287 286 286 284 283 282 281